Hourly Weather Barra de Maldonado

Today, 20 September, Sunday

Time Temperature Precipitation Wind Pressure Humidity
00:00 +3°C° 0 mm 6 mps 764 mmHg 66%
01:00 +3°C° 0 mm 6 mps 763 mmHg 67%
02:00 +3°C° 0 mm 6 mps 763 mmHg 67%
03:00 +3°C° 0 mm 6 mps 763 mmHg 67%
04:00 +2°C° 0 mm 6 mps 763 mmHg 67%
05:00 +2°C° 0 mm 6 mps 763 mmHg 67%
06:00 +4°C° 0 mm 7 mps 763 mmHg 63%
07:00 +6°C° 0 mm 8 mps 763 mmHg 59%
08:00 +9°C° 0 mm 8 mps 764 mmHg 56%
09:00 +10°C° 0 mm 9 mps 763 mmHg 52%
10:00 +12°C° 0 mm 10 mps 763 mmHg 48%
11:00 +13°C° 0 mm 11 mps 763 mmHg 45%
12:00 +13°C° 0 mm 11 mps 763 mmHg 46%
13:00 +13°C° 0 mm 10 mps 763 mmHg 48%
14:00 +12°C° 0 mm 10 mps 763 mmHg 49%
15:00 +11°C° 0 mm 9 mps 763 mmHg 54%
16:00 +10°C° 0 mm 8 mps 763 mmHg 60%
17:00 +9°C° 0 mm 7 mps 763 mmHg 65%
18:00 +8°C° 0 mm 7 mps 764 mmHg 68%
19:00 +7°C° 0 mm 6 mps 764 mmHg 72%
20:00 +5°C° 0 mm 6 mps 765 mmHg 76%
21:00 +4°C° 0 mm 6 mps 765 mmHg 76%
22:00 +5°C° 0 mm 5 mps 765 mmHg 76%
23:00 +5°C° 0 mm 5 mps 765 mmHg 77%

Tomorrow, 21 September, Monday

Time Temperature Precipitation Wind Pressure Humidity
00:00 +5°C° 0 mm 5 mps 765 mmHg 77%
01:00 +4°C° 0 mm 6 mps 765 mmHg 78%
02:00 +3°C° 0 mm 6 mps 765 mmHg 78%
03:00 +3°C° 0 mm 6 mps 765 mmHg 79%
04:00 +3°C° 0 mm 6 mps 765 mmHg 80%
05:00 +3°C° 0 mm 6 mps 765 mmHg 81%
06:00 +4°C° 0 mm 6 mps 765 mmHg 76%
07:00 +5°C° 0 mm 6 mps 766 mmHg 71%
08:00 +8°C° 0 mm 6 mps 766 mmHg 66%
09:00 +9°C° 0 mm 5 mps 766 mmHg 64%
10:00 +9°C° 0 mm 5 mps 766 mmHg 62%
11:00 +11°C° 0 mm 4 mps 766 mmHg 60%
12:00 +11°C° 0 mm 4 mps 766 mmHg 60%
13:00 +12°C° 0 mm 4 mps 766 mmHg 60%
14:00 +12°C° 0 mm 4 mps 766 mmHg 59%
15:00 +11°C° 0 mm 4 mps 765 mmHg 64%
16:00 +10°C° 0 mm 3 mps 765 mmHg 68%
17:00 +9°C° 0 mm 3 mps 765 mmHg 73%
18:00 +7°C° 0 mm 2 mps 766 mmHg 77%
19:00 +7°C° 0 mm 1 mps 766 mmHg 81%
20:00 +5°C° 0 mm 1 mps 766 mmHg 86%
21:00 +5°C° 0 mm 1 mps 766 mmHg 86%
22:00 +4°C° 0 mm 2 mps 766 mmHg 87%
23:00 +4°C° 0 mm 2 mps 766 mmHg 88%

Day after tomorrow, 22 September, Tuesday

Time Temperature Precipitation Wind Pressure Humidity
00:00 +2°C° 0 mm 3 mps 766 mmHg 86%
01:00 +2°C° 0 mm 3 mps 766 mmHg 84%
02:00 +2°C° 0 mm 3 mps 765 mmHg 82%
03:00 +2°C° 0 mm 3 mps 766 mmHg 84%
04:00 +2°C° 0 mm 3 mps 766 mmHg 86%
05:00 +2°C° 0 mm 3 mps 766 mmHg 88%
06:00 +4°C° 0 mm 3 mps 766 mmHg 82%
07:00 +7°C° 0 mm 3 mps 766 mmHg 76%
08:00 +10°C° 0 mm 3 mps 766 mmHg 69%
09:00 +12°C° 0 mm 3 mps 766 mmHg 62%
10:00 +14°C° 0 mm 3 mps 766 mmHg 55%
11:00 +17°C° 0 mm 3 mps 766 mmHg 47%
12:00 +18°C° 0 mm 3 mps 765 mmHg 48%
13:00 +18°C° 0 mm 3 mps 765 mmHg 49%
14:00 +19°C° 0 mm 4 mps 764 mmHg 50%
15:00 +17°C° 0 mm 4 mps 764 mmHg 57%
16:00 +15°C° 0 mm 4 mps 764 mmHg 64%
17:00 +14°C° 0 mm 4 mps 763 mmHg 71%
18:00 +12°C° 0 mm 4 mps 763 mmHg 75%
19:00 +10°C° 0 mm 5 mps 763 mmHg 78%
20:00 +8°C° 0 mm 5 mps 763 mmHg 82%
21:00 +8°C° 0 mm 5 mps 763 mmHg 83%
22:00 +7°C° 0 mm 5 mps 763 mmHg 84%
23:00 +6°C° 0 mm 5 mps 763 mmHg 86%

23 September, Wednesday

Time Temperature Precipitation Wind Pressure Humidity
00:00 +6°C° 0 mm 4 mps 763 mmHg 87%
01:00 +6°C° 0 mm 4 mps 763 mmHg 89%
02:00 +6°C° 0 mm 4 mps 763 mmHg 90%
03:00 +6°C° 0 mm 4 mps 763 mmHg 91%
04:00 +7°C° 0 mm 3 mps 763 mmHg 91%
05:00 +7°C° 0 mm 3 mps 763 mmHg 92%
06:00 +8°C° 0 mm 3 mps 763 mmHg 85%
07:00 +10°C° 0 mm 3 mps 764 mmHg 79%
08:00 +13°C° 0 mm 2 mps 764 mmHg 72%
09:00 +16°C° 0 mm 2 mps 764 mmHg 64%
10:00 +18°C° 0 mm 2 mps 763 mmHg 57%
11:00 +21°C° 0 mm 1 mps 763 mmHg 50%
12:00 +21°C° 0 mm 2 mps 763 mmHg 51%
13:00 +21°C° 0 mm 2 mps 763 mmHg 51%
14:00 +21°C° 0 mm 3 mps 762 mmHg 52%
15:00 +19°C° 0 mm 3 mps 762 mmHg 62%
16:00 +17°C° 0 mm 3 mps 762 mmHg 71%
17:00 +16°C° 0 mm 3 mps 762 mmHg 81%
18:00 +13°C° 0 mm 3 mps 762 mmHg 85%
19:00 +12°C° 0 mm 3 mps 762 mmHg 89%
20:00 +11°C° 0 mm 3 mps 762 mmHg 92%
21:00 +11°C° 0 mm 3 mps 762 mmHg 93%
22:00 +11°C° 0 mm 3 mps 762 mmHg 93%
23:00 +10°C° 0 mm 3 mps 762 mmHg 93%

24 September, Thursday

Time Temperature Precipitation Wind Pressure Humidity
00:00 +10°C° 0 mm 2 mps 762 mmHg 92%
01:00 +10°C° 0 mm 2 mps 762 mmHg 91%
02:00 +10°C° 0 mm 2 mps 762 mmHg 90%
03:00 +10°C° 0 mm 2 mps 762 mmHg 91%
04:00 +10°C° 0 mm 2 mps 762 mmHg 91%
05:00 +10°C° 0 mm 2 mps 762 mmHg 91%
06:00 +12°C° 0 mm 3 mps 762 mmHg 87%
07:00 +14°C° 0 mm 3 mps 763 mmHg 83%
08:00 +16°C° 0 mm 3 mps 763 mmHg 79%
09:00 +18°C° 0 mm 3 mps 763 mmHg 73%
10:00 +20°C° 0 mm 4 mps 762 mmHg 68%
11:00 +22°C° 0 mm 4 mps 762 mmHg 62%
12:00 +21°C° 0 mm 4 mps 762 mmHg 64%
13:00 +21°C° 0 mm 5 mps 761 mmHg 65%
14:00 +21°C° 0 mm 5 mps 761 mmHg 67%
15:00 +19°C° 0 mm 5 mps 761 mmHg 71%
16:00 +17°C° 0 mm 5 mps 760 mmHg 76%
17:00 +16°C° 0 mm 6 mps 760 mmHg 80%
18:00 +15°C° 0 mm 5 mps 760 mmHg 84%
19:00 +14°C° 0 mm 5 mps 760 mmHg 89%
20:00 +13°C° 0 mm 5 mps 760 mmHg 93%
21:00 +13°C° 0 mm 5 mps 760 mmHg 92%
22:00 +13°C° 0 mm 5 mps 760 mmHg 92%
23:00 +14°C° 0 mm 4 mps 760 mmHg 92%

25 September, Friday

Time Temperature Precipitation Wind Pressure Humidity
00:00 +14°C° 0.2 mm 5 mps 760 mmHg 93%
01:00 +14°C° 0.2 mm 5 mps 759 mmHg 94%
02:00 +15°C° 0.2 mm 5 mps 759 mmHg 95%
03:00 +15°C° 0.3 mm 5 mps 759 mmHg 95%
04:00 +15°C° 0.3 mm 6 mps 759 mmHg 96%
05:00 +15°C° 0.3 mm 6 mps 758 mmHg 96%
06:00 +15°C° 0 mm 7 mps 758 mmHg 95%
07:00 +16°C° 0 mm 7 mps 758 mmHg 94%
08:00 +16°C° 0 mm 7 mps 758 mmHg 93%
09:00 +17°C° 0.8 mm 7 mps 757 mmHg 92%
10:00 +17°C° 0.8 mm 7 mps 757 mmHg 91%
11:00 +18°C° 0.8 mm 7 mps 756 mmHg 90%
12:00 +17°C° 2.6 mm 7 mps 756 mmHg 92%
13:00 +16°C° 2.6 mm 8 mps 755 mmHg 95%
14:00 +16°C° 2.6 mm 8 mps 755 mmHg 97%
15:00 +16°C° 0.2 mm 7 mps 755 mmHg 95%
16:00 +16°C° 0.2 mm 6 mps 754 mmHg 94%
17:00 +16°C° 0.2 mm 5 mps 754 mmHg 92%
18:00 +16°C° 0 mm 5 mps 754 mmHg 93%
19:00 +17°C° 0 mm 4 mps 754 mmHg 95%
20:00 +17°C° 0 mm 4 mps 754 mmHg 96%
21:00 +17°C° 0 mm 3 mps 754 mmHg 96%
22:00 +17°C° 0 mm 3 mps 754 mmHg 97%
23:00 +17°C° 0 mm 2 mps 754 mmHg 97%
Show more